Weather in Medikasy

Russia / Chuvash Republic     55°42′03″N   47°20′31″E
temp.,
°C
wind,
m/s
gust,
m/s
humid.,
%
clouds,
%
prec.,
mm/h
press.,
hPa
HPBL,
m
5 march, fri
fri500:00−9w349521 0.0 99861
03:00−10wnw339461 0.0 100042
06:00−11nw2295100 0.0 100121
09:00−10nw239597 0.0 100397
12:00−7w349236 0.0 1004271
15:00−6w479145 0.0 1006409
18:00−9w479429 0.0 1007102
21:00−11wsw349515 0.0 100959
6 march, sat
sat600:00−10wsw4109699 0.1 1009211
03:00−9w489595 0.1 1012233
06:00−15wnw499590 0.1 1013169
09:00−15wnw479569 0.1 1015214
12:00−11w358931 0.0 1015275
15:00−9wsw488516 0.0 1014530
18:00−13wsw349022 0.0 101361
21:00−14wsw339724 0.0 101438
7 march, sun
sun700:00−15w239782 0.1 101220
03:00−18w239868 0.1 101220
06:00−19wsw23997 0.0 101120
09:00−15ssw35944 0.0 1010146
12:00−10ssw478915 0.0 1008392
15:00−7s5108852 0.0 1005640
18:00−8s61390100 0.0 1002727
21:00−7s71493100 0.6 998826
8 march, mon
mon800:00−6s71495100 1.2 994826
03:00−9wsw7159293 1.9 995539
06:00−12sw5129245 0.0 996308
09:00−10sw6129167 0.1 997452
12:00−7sw71188100 0.0 997751
15:00−5ssw5987100 0.1 997829
18:00−8s3592100 0.1 995102
21:00−11wsw129597 0.1 99521
9 march, tue
tue900:00−11wnw4995100 0.0 997176
03:00−12w6129497 0.1 1000344
06:00−13w6119399 0.1 1004337
09:00−13w599399 0.1 1007410
12:00−12w5791100 0.1 1009496
15:00−11w4790100 0.1 1010554
18:00−14w469598 0.1 1011116
21:00−14w349699 0.2 101294